| time (UTC) | temp F | wind direction | speed knots | gust knots | rain 1hr in | rain 24hr in | rain mn in | humidity % | barometer mb |
| 20260904190046 | 59 | 265 | 1.7 | 0.0 | 0.00 | 0.00 | 0.07 | 62 | 1014.4 |
| 20260904184526 | 59 | 178 | 0.9 | 0.0 | 0.00 | 0.00 | 0.07 | 65 | 1014.6 |
| 20260904183018 | 58 | 177 | 0.9 | 0.0 | 0.00 | 0.00 | 0.07 | 65 | 1014.6 |
| 20260904181617 | 57 | 180 | 0.9 | 0.0 | 0.00 | 0.00 | 0.07 | 68 | 1014.7 |
| 20260904180121 | 56 | 180 | 0.9 | 0.0 | 0.00 | 0.00 | 0.07 | 67 | 1014.6 |
| 20260904174608 | 56 | 182 | 0.9 | 0.0 | 0.00 | 0.00 | 0.07 | 70 | 1014.7 |
| 20260904173041 | 55 | 186 | 0.9 | 0.0 | 0.00 | 0.00 | 0.07 | 74 | 1014.6 |
| 20260904171535 | 54 | 180 | 0.9 | 0.0 | 0.00 | 0.00 | 0.07 | 78 | 1014.7 |
| 20260904170015 | 52 | 194 | 2.6 | 0.0 | 0.00 | 0.00 | 0.07 | 84 | 1014.6 |
| 20260904164512 | 50 | 164 | 1.7 | 0.0 | 0.00 | 0.00 | 0.07 | 91 | 1014.5 |
| 20260904163047 | 49 | 151 | 0.9 | 0.0 | 0.00 | 0.00 | 0.06 | 93 | 1014.4 |
| 20260904161551 | 49 | 150 | 2.6 | 0.0 | 0.00 | 0.00 | 0.05 | 94 | 1014.4 |
| 20260904160032 | 49 | 101 | 0.9 | 0.0 | 0.00 | 0.00 | 0.05 | 95 | 1014.3 |
| 20260904154526 | 48 | 126 | 0.9 | 0.0 | 0.00 | 0.00 | 0.04 | 95 | 1014.1 |
| 20260904153003 | 47 | 257 | 0.0 | 0.0 | 0.00 | 0.00 | 0.04 | 95 | 1014.0 |
| 20260904151600 | 46 | 257 | 0.0 | 0.0 | 0.00 | 0.00 | 0.03 | 95 | 1014.0 |
| 20260904150041 | 46 | 257 | 0.0 | 0.0 | 0.00 | 0.00 | 0.03 | 95 | 1013.9 |
| 20260904144555 | 45 | 257 | 0.0 | 0.0 | 0.00 | 0.00 | 0.02 | 95 | 1013.7 |
| 20260904143019 | 45 | 257 | 0.0 | 0.0 | 0.00 | 0.00 | 0.01 | 95 | 1013.2 |
| 20260904141529 | 45 | 257 | 0.0 | 0.0 | 0.00 | 0.00 | 0.01 | 95 | 1012.9 |
| 20260904140059 | 45 | 257 | 0.0 | 0.0 | 0.00 | 0.00 | 0.65 | 95 | 1013.0 |
| 20260904134557 | 44 | 257 | 0.0 | 0.0 | 0.00 | 0.00 | 0.64 | 95 | 1012.8 |
| 20260904133038 | 44 | 257 | 0.0 | 0.0 | 0.00 | 0.00 | 0.64 | 95 | 1012.6 |
| 20260904131534 | 45 | 257 | 0.0 | 0.0 | 0.00 | 0.00 | 0.63 | 95 | 1012.1 |
| 20260904130020 | 45 | 257 | 0.0 | 0.0 | 0.00 | 0.00 | 0.62 | 95 | 1011.9 |
| 20260904124520 | 45 | 257 | 0.0 | 0.0 | 0.00 | 0.00 | 0.61 | 95 | 1012.2 |
| 20260904123055 | 45 | 257 | 0.0 | 0.0 | 0.00 | 0.00 | 0.60 | 95 | 1012.0 |
| 20260904121555 | 46 | 257 | 0.0 | 0.0 | 0.00 | 0.00 | 0.59 | 95 | 1011.9 |
| 20260904120048 | 46 | 257 | 0.0 | 0.0 | 0.00 | 0.00 | 0.57 | 95 | 1011.7 |
| 20260904114543 | 46 | 257 | 0.0 | 0.0 | 0.00 | 0.00 | 0.56 | 95 | 1011.7 |
| 20260904113027 | 46 | 257 | 0.0 | 0.0 | 0.00 | 0.00 | 0.56 | 95 | 1011.5 |
| 20260904111516 | 46 | 257 | 0.0 | 0.0 | 0.00 | 0.00 | 0.55 | 95 | 1011.5 |
| 20260904110100 | 46 | 257 | 0.0 | 0.0 | 0.00 | 0.00 | 0.54 | 95 | 1010.9 |
| 20260904104559 | 46 | 257 | 0.0 | 0.0 | 0.00 | 0.00 | 0.53 | 95 | 1010.7 |
| 20260904103040 | 46 | 257 | 0.0 | 0.0 | 0.00 | 0.00 | 0.52 | 95 | 1010.3 |
| 20260904101537 | 46 | 257 | 0.0 | 0.0 | 0.00 | 0.00 | 0.51 | 95 | 1010.4 |
| 20260904100022 | 46 | 257 | 0.9 | 0.0 | 0.00 | 0.00 | 0.50 | 95 | 1010.5 |
| 20260904094532 | 46 | 257 | 1.7 | 0.0 | 0.00 | 0.00 | 0.48 | 94 | 1010.0 |
| 20260904093002 | 46 | 257 | 0.0 | 0.0 | 0.00 | 0.00 | 0.47 | 94 | 1009.9 |
| 20260904091600 | 46 | 257 | 1.7 | 0.0 | 0.00 | 0.00 | 0.46 | 94 | 1009.9 |
| 20260904090044 | 47 | 265 | 2.6 | 0.0 | 0.00 | 0.00 | 0.45 | 94 | 1010.5 |
| 20260904084541 | 47 | 270 | 0.0 | 0.0 | 0.00 | 0.00 | 0.43 | 94 | 1009.9 |
| 20260904083023 | 47 | 270 | 0.0 | 0.0 | 0.00 | 0.00 | 0.42 | 94 | 1009.7 |
| 20260904081522 | 47 | 270 | 0.9 | 0.0 | 0.00 | 0.00 | 0.40 | 94 | 1009.6 |
| 20260904080004 | 47 | 270 | 1.7 | 0.0 | 0.00 | 0.00 | 0.39 | 94 | 1009.7 |
| 20260904074504 | 47 | 271 | 0.0 | 0.0 | 0.00 | 0.00 | 0.38 | 94 | 1009.8 |
| 20260904073056 | 47 | 271 | 0.0 | 0.0 | 0.00 | 0.00 | 0.36 | 94 | 1009.6 |
| 20260904071547 | 47 | 271 | 0.9 | 0.0 | 0.00 | 0.00 | 0.34 | 94 | 1009.7 |
| 20260904070027 | 47 | 271 | 0.0 | 0.0 | 0.00 | 0.00 | 0.33 | 93 | 1009.3 |
| 20260904064532 | 47 | 271 | 2.6 | 0.0 | 0.00 | 0.00 | 0.32 | 93 | 1009.2 |
| 20260904063012 | 47 | 280 | 4.3 | 0.0 | 0.00 | 0.00 | 0.30 | 93 | 1008.9 |
| 20260904061504 | 48 | 283 | 4.3 | 0.0 | 0.00 | 0.00 | 0.28 | 93 | 1008.5 |
| 20260904060104 | 48 | 288 | 4.3 | 0.0 | 0.00 | 0.00 | 0.28 | 93 | 1008.4 |
| 20260904054551 | 48 | 281 | 5.2 | 0.0 | 0.00 | 0.00 | 0.26 | 93 | 1008.3 |
| 20260904053025 | 48 | 288 | 6.1 | 0.0 | 0.00 | 0.00 | 0.25 | 92 | 1008.2 |
| 20260904051522 | 50 | 296 | 2.6 | 0.0 | 0.00 | 0.00 | 0.24 | 92 | 1008.1 |
| 20260904050001 | 51 | 304 | 2.6 | 0.0 | 0.00 | 0.00 | 0.22 | 92 | 1007.9 |
| 20260904044602 | 51 | 360 | 3.5 | 0.0 | 0.00 | 0.00 | 0.21 | 92 | 1007.9 |
| 20260904043042 | 51 | 14 | 0.0 | 0.0 | 0.00 | 0.00 | 0.20 | 92 | 1008.4 |
| 20260904041543 | 51 | 14 | 0.0 | 0.0 | 0.00 | 0.00 | 0.20 | 91 | 1008.5 |
| 20260904040037 | 52 | 14 | 0.0 | 0.0 | 0.00 | 0.00 | 0.18 | 91 | 1008.6 |
| 20260904034523 | 52 | 14 | 0.0 | 0.0 | 0.00 | 0.00 | 0.18 | 91 | 1008.3 |
| 20260904033005 | 52 | 14 | 0.0 | 0.0 | 0.00 | 0.00 | 0.17 | 91 | 1008.6 |
| 20260904031504 | 52 | 14 | 0.9 | 0.0 | 0.00 | 0.00 | 0.16 | 90 | 1008.2 |
| 20260904030047 | 53 | 14 | 0.0 | 0.0 | 0.00 | 0.00 | 0.15 | 90 | 1008.2 |
| 20260904024551 | 52 | 14 | 0.0 | 0.0 | 0.00 | 0.00 | 0.14 | 89 | 1007.9 |
| 20260904023036 | 53 | 14 | 0.9 | 0.0 | 0.00 | 0.00 | 0.14 | 88 | 1008.3 |
| 20260904021541 | 54 | 15 | 0.0 | 0.0 | 0.00 | 0.00 | 0.13 | 87 | 1007.6 |
| 20260904020010 | 54 | 14 | 0.0 | 0.0 | 0.00 | 0.00 | 0.13 | 86 | 1007.8 |
| 20260904014509 | 54 | 14 | 0.0 | 0.0 | 0.00 | 0.00 | 0.12 | 85 | 1007.8 |
| 20260904013110 | 56 | 15 | 0.0 | 0.0 | 0.00 | 0.00 | 0.12 | 84 | 1008.2 |
| 20260904011550 | 56 | 14 | 0.0 | 0.0 | 0.00 | 0.00 | 0.11 | 83 | 1008.3 |
| 20260904010034 | 57 | 15 | 0.0 | 0.0 | 0.00 | 0.00 | 0.11 | 81 | 1008.4 |
| 20260904004532 | 57 | 14 | 0.0 | 0.0 | 0.00 | 0.00 | 0.10 | 79 | 1008.2 |
| 20260904003024 | 58 | 14 | 0.0 | 0.0 | 0.00 | 0.00 | 0.10 | 78 | 1008.5 |
| 20260904001522 | 58 | 15 | 0.0 | 0.0 | 0.00 | 0.00 | 0.10 | 78 | 1008.5 |
| 20260904000019 | 58 | 15 | 0.0 | 0.0 | 0.00 | 0.00 | 0.10 | 77 | 1008.2 |
| 20260903234517 | 58 | 14 | 0.0 | 0.0 | 0.00 | 0.00 | 0.10 | 75 | 1008.8 |
| 20260903233030 | 58 | 15 | 0.9 | 0.0 | 0.00 | 0.00 | 0.10 | 74 | 1008.7 |
| 20260903231517 | 58 | 13 | 0.9 | 0.0 | 0.00 | 0.00 | 0.10 | 73 | 1008.8 |
| 20260903230012 | 59 | 13 | 0.0 | 0.0 | 0.00 | 0.00 | 0.10 | 72 | 1009.1 |
| 20260903224522 | 59 | 13 | 0.9 | 0.0 | 0.00 | 0.00 | 0.10 | 71 | 1009.2 |
| 20260903223053 | 59 | 11 | 0.9 | 0.0 | 0.00 | 0.00 | 0.10 | 72 | 1009.3 |
| 20260903221551 | 59 | 9 | 0.0 | 0.0 | 0.00 | 0.00 | 0.10 | 71 | 1009.4 |
| 20260903220031 | 58 | 9 | 0.9 | 0.0 | 0.00 | 0.00 | 0.10 | 73 | 1010.0 |
| 20260903214534 | 58 | 5 | 0.9 | 0.0 | 0.00 | 0.00 | 0.10 | 74 | 1010.1 |
| 20260903213011 | 58 | 360 | 0.9 | 0.0 | 0.00 | 0.00 | 0.10 | 77 | 1010.1 |
| 20260903211510 | 58 | 322 | 0.9 | 0.0 | 0.00 | 0.00 | 0.10 | 77 | 1010.0 |
| 20260903210052 | 56 | 301 | 0.9 | 0.0 | 0.00 | 0.00 | 0.10 | 82 | 1010.0 |
| 20260903204548 | 56 | 300 | 0.9 | 0.0 | 0.00 | 0.00 | 0.10 | 84 | 1010.3 |
| 20260903203029 | 55 | 299 | 0.0 | 0.0 | 0.00 | 0.00 | 0.10 | 85 | 1010.3 |
| 20260903201529 | 55 | 299 | 0.9 | 0.0 | 0.00 | 0.00 | 0.10 | 87 | 1010.4 |
| 20260903200010 | 55 | 298 | 0.0 | 0.0 | 0.00 | 0.00 | 0.10 | 89 | 1010.4 |
| 20260903194508 | 54 | 298 | 0.0 | 0.0 | 0.00 | 0.00 | 0.10 | 90 | 1010.5 |
| 20260903193108 | 53 | 298 | 0.9 | 0.0 | 0.00 | 0.00 | 0.10 | 91 | 1010.7 |
| 20260903191549 | 53 | 293 | 0.0 | 0.0 | 0.00 | 0.00 | 0.10 | 92 | 1010.7 |